BELINTERSAT-1

Last updated on Thu Nov 06 2025 00:02:48 GMT+0000 (Coordinated Universal Time)

1 41238U 16001A 25309.04544132 .00000119 00000+0 00000+0 0 9997 2 41238 0.0177 277.3504 0001616 338.8291 216.1909 1.00272629 35994
UTC large
Height (km)
Speed (km/s)
/
Latitude / Longitude
Inclination (degrees)
Orbital Period (minutes)
Azimuth
Elevation
Range (km)
Doppler Factor

Next 0 passes for location: London (51.5072 / 0.1276)

Sorry there are no passes over London.